Preview of NWS' New Version of Forecast
This preview is not operational and should not be used for support decisions.

Regional Weather Roundup (RWR)

Issued by National Weather Service (NWS)

                            
000
ASCA42 TJSJ 201610
RWRPR 
PUERTO RICO/U.S. VIRGIN ISLANDS HOURLY WEATHER ROUNDUP
NATIONAL WEATHER SERVICE SAN JUAN PR
1200 PM AST WED FEB 20 2019

PRZ001>002-007>008-010-201700-
PUERTO RICO
  
CITY           SKY/WX    TMP DP  RH WIND       PRES   REMARKS
SAN JUAN LMM   PTSUNNY   81  70  69 NE18      30.13F                  
AGUADILLA      CLOUDY    75 N/A N/A E18       30.15F                  
CEIBA          LGT RAIN  73  72  94 E8        30.14F FOG              
$$

VIZ001>002-201700-
U.S. VIRGIN ISLANDS
  
CITY           SKY/WX    TMP DP  RH WIND       PRES   REMARKS
CHARLOTTE AMA  LGT RAIN  75  72  88 SE15      30.12F                  
CHRISTIANSTED  MOSUNNY   86  70  58 E20       30.11F HX  90           
$$

HOURLY WEATHER ROUNDUP FOR THE NEWS MEDIA
  
CITY           SKY/WX    TMP DP  RH WIND       PRES   REMARKS
ORLANDO        CLOUDY    81  69  67 S15G23    30.14S                  
NEW YORK       CLOUDY    29  13  51 CALM      30.61S                  
NEWARK         FLURRIES  30  13  49 SE6       30.59S WCI  24          
CHICAGO        FRZ DRZL  30  29  96 E18       29.84F FOG     WCI  18  
HARTFORD       FAIR      27   6  41 VRB5      30.57F WCI  22          
BOSTON         CLOUDY    27   5  39 NW6       30.58F WCI  20          
DALLAS         PTSUNNY   43  35  73 VRB3      30.01                   
PHILADELPHIA   SNOW      27  23  85 E3        30.59F VSB 1/2          
LOS ANGELES    PTSUNNY   47  34  60 E7        30.03R                  
WASHINGTON DC  LGTSLEET  29  27  92 NW6       30.55R VSB 1/2 WCI  23